TimeEST,TemperatureF,Dew PointF,Humidity,Sea Level PressureIn,VisibilityMPH,Wind Direction,Wind SpeedMPH,Gust SpeedMPH,PrecipitationIn,Events,Conditions,WindDirDegrees,DateUTC
12:15 AM,30.2,28.4,93,29.91,10.0,Calm,Calm,-,N/A,,Overcast,0,2013-01-20 05:15:00
12:35 AM,30.2,28.4,93,29.89,10.0,Calm,Calm,-,N/A,,Overcast,0,2013-01-20 05:35:00
12:55 AM,30.2,28.4,93,29.88,10.0,Calm,Calm,-,N/A,,Overcast,0,2013-01-20 05:55:00
1:15 AM,30.2,30.2,100,29.88,10.0,Calm,Calm,-,N/A,,Overcast,0,2013-01-20 06:15:00
1:35 AM,32.0,30.2,93,29.88,10.0,East,3.5,-,N/A,,Overcast,80,2013-01-20 06:35:00
1:55 AM,33.8,33.8,100,29.87,10.0,East,6.9,-,N/A,,Overcast,90,2013-01-20 06:55:00
2:15 AM,35.6,33.8,93,29.87,10.0,East,3.5,-,N/A,,Overcast,80,2013-01-20 07:15:00
2:35 AM,35.6,33.8,93,29.85,10.0,East,4.6,-,N/A,,Overcast,100,2013-01-20 07:35:00
3:15 AM,35.6,33.8,93,29.81,10.0,East,6.9,-,N/A,,Overcast,80,2013-01-20 08:15:00
3:55 AM,37.4,35.6,93,29.77,10.0,ESE,5.8,-,N/A,,Scattered Clouds,110,2013-01-20 08:55:00
4:15 AM,37.4,35.6,93,29.76,10.0,East,4.6,-,N/A,,Mostly Cloudy,80,2013-01-20 09:15:00
4:35 AM,35.6,35.6,100,29.74,10.0,ESE,3.5,-,N/A,,Overcast,110,2013-01-20 09:35:00
4:55 AM,35.6,35.6,100,29.73,10.0,SE,3.5,-,N/A,,Mostly Cloudy,140,2013-01-20 09:55:00
5:15 AM,35.6,35.6,100,29.72,6.0,Calm,Calm,-,N/A,,Scattered Clouds,0,2013-01-20 10:15:00
5:35 AM,33.8,33.8,100,29.71,3.0,Calm,Calm,-,N/A,,Partly Cloudy,0,2013-01-20 10:35:00
5:55 AM,33.8,32.0,93,29.70,5.0,Calm,Calm,-,N/A,,Clear,0,2013-01-20 10:55:00
6:15 AM,33.8,32.0,93,29.67,5.0,Calm,Calm,-,N/A,,Mostly Cloudy,0,2013-01-20 11:15:00
6:35 AM,33.8,33.8,100,29.66,5.0,Calm,Calm,-,N/A,,Overcast,0,2013-01-20 11:35:00
6:55 AM,33.8,32.0,93,29.65,3.0,Calm,Calm,-,N/A,,Overcast,0,2013-01-20 11:55:00
7:15 AM,33.8,33.8,100,29.62,1.2,Calm,Calm,-,N/A,,Overcast,0,2013-01-20 12:15:00
7:35 AM,35.6,33.8,93,29.60,5.0,South,10.4,-,N/A,,Mostly Cloudy,180,2013-01-20 12:35:00
7:55 AM,39.2,39.2,100,29.60,7.0,South,10.4,-,N/A,,Mostly Cloudy,180,2013-01-20 12:55:00
8:35 AM,42.8,39.2,87,29.55,8.0,South,19.6,-,N/A,,Overcast,190,2013-01-20 13:35:00
9:15 AM,42.8,39.2,87,29.53,8.0,South,20.7,-,N/A,,Overcast,190,2013-01-20 14:15:00
9:35 AM,44.6,39.2,81,29.52,8.0,SSW,19.6,29.9,N/A,,Overcast,200,2013-01-20 14:35:00
10:15 AM,44.6,39.2,81,29.50,9.0,SSW,19.6,25.3,N/A,,Overcast,200,2013-01-20 15:15:00
10:35 AM,44.6,39.2,81,29.48,8.0,SSW,17.3,26.5,N/A,,Overcast,200,2013-01-20 15:35:00
10:55 AM,44.6,39.2,81,29.47,9.0,SSW,19.6,34.5,N/A,,Overcast,200,2013-01-20 15:55:00
11:15 AM,46.4,39.2,76,29.45,9.0,SSW,21.9,31.1,N/A,,Overcast,200,2013-01-20 16:15:00
11:35 AM,46.4,39.2,76,29.43,9.0,SSW,23.0,31.1,N/A,,Mostly Cloudy,200,2013-01-20 16:35:00
11:55 AM,46.4,37.4,71,29.43,10.0,SSW,18.4,27.6,N/A,,Scattered Clouds,210,2013-01-20 16:55:00
12:15 PM,46.4,37.4,71,29.42,10.0,SW,18.4,26.5,N/A,,Clear,220,2013-01-20 17:15:00
12:35 PM,46.4,35.6,66,29.42,10.0,SW,17.3,29.9,N/A,,Clear,220,2013-01-20 17:35:00
1:15 PM,46.4,35.6,66,29.42,10.0,SW,17.3,29.9,N/A,,Clear,220,2013-01-20 18:15:00
1:35 PM,46.4,35.6,66,29.42,10.0,SW,16.1,27.6,N/A,,Clear,220,2013-01-20 18:35:00
1:55 PM,46.4,35.6,66,29.43,10.0,SW,16.1,23.0,N/A,,Partly Cloudy,230,2013-01-20 18:55:00
2:15 PM,46.4,35.6,66,29.43,10.0,SW,10.4,19.6,N/A,,Mostly Cloudy,220,2013-01-20 19:15:00
2:35 PM,46.4,35.6,66,29.44,10.0,WSW,8.1,-,N/A,,Overcast,240,2013-01-20 19:35:00
2:55 PM,46.4,33.8,62,29.44,10.0,SSW,10.4,16.1,N/A,,Overcast,210,2013-01-20 19:55:00
3:15 PM,44.6,32.0,61,29.44,10.0,SW,9.2,-,N/A,,Scattered Clouds,220,2013-01-20 20:15:00
3:35 PM,44.6,26.6,49,29.45,10.0,WSW,13.8,26.5,N/A,,Clear,240,2013-01-20 20:35:00
3:55 PM,44.6,26.6,49,29.46,10.0,SW,10.4,19.6,N/A,,Clear,230,2013-01-20 20:55:00
4:15 PM,44.6,26.6,49,29.48,10.0,WSW,11.5,17.3,N/A,,Partly Cloudy,240,2013-01-20 21:15:00
4:35 PM,42.8,26.6,53,29.49,10.0,West,6.9,-,N/A,,Mostly Cloudy,280,2013-01-20 21:35:00
4:55 PM,42.8,28.4,57,29.51,10.0,West,5.8,-,N/A,,Overcast,260,2013-01-20 21:55:00
5:15 PM,41.0,28.4,61,29.52,10.0,West,9.2,-,N/A,,Partly Cloudy,260,2013-01-20 22:15:00
5:35 PM,39.2,26.6,61,29.53,10.0,West,6.9,-,N/A,,Clear,260,2013-01-20 22:35:00
5:55 PM,39.2,26.6,61,29.54,10.0,West,3.5,-,N/A,,Clear,260,2013-01-20 22:55:00
6:15 PM,39.2,26.6,61,29.55,10.0,WSW,8.1,-,N/A,,Clear,250,2013-01-20 23:15:00
6:35 PM,39.2,21.2,49,29.56,10.0,West,11.5,20.7,N/A,,Clear,270,2013-01-20 23:35:00
6:55 PM,39.2,19.4,45,29.58,10.0,West,10.4,21.9,N/A,,Clear,270,2013-01-20 23:55:00
7:15 PM,37.4,15.8,41,29.59,10.0,West,15.0,25.3,N/A,,Clear,260,2013-01-21 00:15:00
7:35 PM,37.4,15.8,41,29.60,10.0,West,18.4,31.1,N/A,,Clear,270,2013-01-21 00:35:00
7:55 PM,35.6,15.8,44,29.61,10.0,West,15.0,26.5,N/A,,Clear,270,2013-01-21 00:55:00
8:15 PM,35.6,15.8,44,29.62,10.0,West,12.7,20.7,N/A,,Clear,260,2013-01-21 01:15:00
8:55 PM,33.8,10.4,38,29.65,10.0,West,11.5,23.0,N/A,,Clear,270,2013-01-21 01:55:00
9:15 PM,33.8,10.4,38,29.67,10.0,WNW,11.5,19.6,N/A,,Clear,290,2013-01-21 02:15:00
9:35 PM,32.0,14.0,48,29.68,10.0,WNW,13.8,21.9,N/A,,Clear,290,2013-01-21 02:35:00
9:55 PM,30.2,17.6,60,29.70,10.0,NW,11.5,21.9,N/A,,Clear,310,2013-01-21 02:55:00
10:15 PM,28.4,12.2,51,29.72,10.0,WNW,13.8,33.4,N/A,,Clear,300,2013-01-21 03:15:00
10:35 PM,26.6,10.4,51,29.74,10.0,WNW,16.1,25.3,N/A,,Clear,300,2013-01-21 03:35:00
10:55 PM,26.6,8.6,47,29.75,10.0,WNW,16.1,29.9,N/A,,Clear,290,2013-01-21 03:55:00
11:15 PM,26.6,6.8,43,29.76,10.0,NW,11.5,31.1,N/A,,Clear,310,2013-01-21 04:15:00
11:35 PM,24.8,6.8,46,29.76,10.0,WNW,15.0,28.8,N/A,,Clear,290,2013-01-21 04:35:00
11:55 PM,23.0,6.8,50,29.78,10.0,WNW,12.7,28.8,N/A,,Clear,300,2013-01-21 04:55:00